#timestamp,LO_Frequency,Hit,StdDev 
1666220415.2,286046998.4,N
1666220435.9,286046998.9,N
1666220455.7,286046999.1,N
1666220475.6,286046997.7,N
1666220495.4,286046996.3,N
1666220515.3,286046993.3,Y
1666220535.1,286046995.3,P
1666220536.0,286046995.3,N
1666220555.8,286046995.5,N
1666220575.7,286046993.5,Y
1666220595.5,286046998.5,P
1666220615.4,286047000.5,N
1666220635.2,286047001.0,N
1666220655.0,286047001.2,N
1666220655.9,286047001.2,N
1666220675.8,286047001.1,N
1666220695.6,286047000.8,N
1666220715.5,286047000.9,N
1666220735.3,286047001.0,N
1666220755.1,286047000.9,N
1666220775.9,286047000.5,N
1666220795.7,286047000.3,N
1666220815.5,286047000.0,N
1666220835.4,286047002.7,N
1666220855.2,286046999.7,N
1666220875.0,286046999.7,N
1666220876.0,286046999.7,N
1666220895.8,286046999.9,N
1666220915.6,286047002.4,N
1666220935.5,286047000.5,N
1666220955.3,286047000.3,N
1666220975.1,286047001.2,N
1666220995.9,286047000.5,N
1666221015.7,286046999.9,N
1666221035.5,286046999.8,N
1666221055.4,286047002.6,N
1666221075.2,286047000.1,N
1666221095.1,286047000.1,N
1666221096.0,286047000.1,N
1666221115.8,286047002.6,N
1666221135.6,286047002.5,N
1666221155.5,286047002.7,N
1666221175.3,286047000.6,N
1666221195.1,286047001.0,N
1666221215.9,286046999.6,N
1666221235.7,286046999.3,N
1666221255.6,286046998.9,N
1666221275.4,286046998.6,N
1666221295.2,286046998.4,N
1666221315.1,286047011.9,Y
1666221316.0,286046999.1,P
1666221335.8,286046996.9,P
1666221355.7,286046997.6,N
1666221375.5,286046995.6,Y
1666221395.3,286046996.5,P
1666221415.2,286046996.5,P
1666221435.0,286046999.4,N
1666221435.9,286046999.4,N
1666221455.7,286046998.6,N
1666221475.6,286046998.1,N
1666221495.4,286047000.7,N
1666221515.3,286047000.3,N
1666221535.1,286047000.3,N
1666221536.0,286047000.3,N
1666221555.8,286046998.4,N
1666221575.7,286047001.2,N
1666221595.5,286047001.0,N
1666221615.3,286046998.7,N
1666221635.2,286046998.1,N
1666221655.0,286047001.0,N
1666221655.9,286047001.0,N
1666221675.8,286046998.4,N
1666221695.6,286046998.4,N
1666221715.4,286047001.2,N
1666221735.3,286047000.6,N
1666221755.1,286047000.5,N
1666221775.8,286047001.0,N
1666221795.7,286046998.6,N
1666221815.5,286046998.8,N
1666221835.4,286046996.5,N
1666221855.2,286046998.3,N
1666221875.0,286046998.9,N
1666221875.9,286046998.9,N
1666221895.8,286047001.1,N
1666221915.6,286046998.1,N
1666221935.4,286046999.2,N
1666221955.3,286046996.7,N
1666221975.1,286046999.2,N
1666221995.9,286046997.9,N
1666222015.7,286046997.9,N
1666222035.5,286046997.5,N
1666222055.4,286046997.3,N
1666222075.2,286046997.1,N
1666222095.1,286046997.7,N
1666222096.0,286046997.7,N
1666222115.8,286046999.6,N
1666222135.1,286046998.9,N
1666222136.0,286046998.9,N
1666222155.8,286047000.6,N
1666222175.7,286047001.1,N
1666222195.5,286047001.1,N
1666222215.3,286047000.2,N
1666222235.2,286047000.3,N
1666222255.9,286047000.1,N
1666222275.7,286047000.0,N
1666222295.6,286046999.1,N
1666222315.4,286046997.3,N
1666222335.3,286046999.4,N
1666222355.1,286047001.0,N
1666222356.0,286047001.0,N
1666222375.8,286046999.3,N
1666222395.7,286047001.1,N
1666222415.5,286046999.6,N
1666222435.3,286047000.7,N
1666222455.2,286047000.2,N
1666222475.0,286046998.5,N
1666222475.9,286046998.5,N
1666222495.8,286046999.3,N
1666222515.6,286047001.2,N
1666222535.4,286047001.2,N
1666222555.3,286047001.1,N
1666222575.1,286046999.6,N
1666222595.8,286046996.1,Y
1666222615.7,286046997.4,P
1666222635.5,286046997.5,N
1666222655.4,286046999.6,N
1666222675.2,286046998.4,N
1666222695.0,286046996.6,Y
1666222695.9,286046996.6,P
1666222715.8,286047001.2,N
1666222735.6,286046998.3,N
1666222755.4,286046999.7,N
1666222775.3,286047001.7,N
1666222795.1,286047004.3,N
1666222815.9,286047001.3,N
1666222835.7,286046999.9,N
1666222855.5,286047000.1,N
1666222875.4,286046998.2,N
1666222895.2,286047001.0,N
1666222915.0,286047000.7,N
1666222915.9,286047000.7,N
1666222935.8,286047000.2,N
1666222955.6,286047001.4,N
1666222975.5,286047001.0,N
1666222995.3,286047002.4,N
1666223015.1,286047002.3,N
1666223035.9,286047002.9,N
1666223055.7,286047004.4,N
1666223075.6,286047005.9,Y
1666223095.4,286047003.9,P
1666223115.2,286047003.4,N
1666223135.1,286047003.7,N
1666223136.0,286047003.7,N
1666223155.8,286047003.3,N
1666223175.6,286047002.9,N
1666223195.5,286047004.4,Y
1666223215.3,286046998.8,P
1666223235.2,286046999.3,N
1666223255.9,286047000.5,N
1666223275.7,286047000.6,N
1666223295.6,286047000.4,N
1666223315.4,286047002.2,N
1666223335.2,286047000.1,N
1666223355.1,286046999.7,N
1666223356.0,286046999.7,N
1666223375.8,286047000.2,N
1666223395.7,286047001.9,N
1666223415.5,286047002.7,N
1666223435.3,286047002.7,N
1666223455.2,286047001.7,N
1666223475.0,286047005.8,Y
1666223475.9,286047005.8,P
1666223495.8,286047002.2,N
1666223515.6,286047003.9,N
1666223535.4,286047004.7,N
1666223555.3,286047003.5,N
1666223575.1,286047003.2,N
1666223595.8,286047003.2,N
1666223615.7,286047003.9,N
1666223635.5,286047004.0,Y
1666223655.4,286046998.2,P
1666223675.2,286046995.6,N
1666223695.0,286046997.9,N
1666223695.9,286046997.9,N
1666223715.8,286046995.1,N
1666223735.6,286046996.5,N
1666223755.5,286046998.2,N
1666223775.3,286047000.3,N
1666223795.1,286046998.5,N
1666223815.9,286046998.3,N
1666223835.7,286047001.2,N
1666223855.5,286047001.1,N
1666223875.4,286046998.6,N
1666223895.2,286047002.1,N
1666223915.1,286047002.8,N
1666223916.0,286047002.8,N
1666223935.8,286046999.8,N
1666223955.6,286046998.6,N
1666223975.5,286047002.7,N
1666223995.3,286047001.0,N
